Location: Astronomy Club of Akron Observatory
(40.9700°N, 81.5606°W)
Time: 06:39:57
(UTC-04:00)

Cosmos 1441 Rocket - Visible Passes

Search period start: 30 May 2016 00:00
Search period end: 09 June 2016 00:00
Orbit: 500 x 546 km, 81.1° (Epoch: 28 May)

Date Brightness Start Highest point End Pass type
(mag) Time Alt. Az. Time Alt. Az. Time Alt. Az.
30 May 4.4 01:47:36 43° NNE 01:47:36 43° NNE 01:50:22 10° NNE visible
31 May 4.4 01:34:50 41° NNE 01:34:50 41° NNE 01:37:30 10° NNE visible
01 Jun 4.5 01:22:02 38° NNE 01:22:02 38° NNE 01:24:38 10° NNE visible
02 Jun 4.6 01:09:13 36° NE 01:09:13 36° NE 01:11:46 10° NNE visible
02 Jun 5.9 02:44:22 11° WNW 02:44:22 11° WNW 02:45:16 10° NW visible
03 Jun 4.6 00:56:24 34° NE 00:56:24 34° NE 00:58:53 10° NNE visible
03 Jun 5.8 02:31:32 12° WNW 02:31:32 12° WNW 02:32:58 10° NW visible
04 Jun 4.7 00:43:33 31° NE 00:43:33 31° NE 00:45:59 10° NNE visible
04 Jun 5.7 02:18:42 13° WNW 02:18:42 13° WNW 02:20:29 10° NW visible
05 Jun 4.7 00:30:41 29° NE 00:30:41 29° NE 00:33:05 10° NNE visible
05 Jun 5.6 02:05:50 15° WNW 02:05:50 15° WNW 02:07:54 10° NW visible
06 Jun 4.8 00:17:49 27° ENE 00:17:49 27° ENE 00:20:10 10° NNE visible
06 Jun 5.5 01:52:57 16° WNW 01:52:57 16° WNW 01:55:17 10° NNW visible
07 Jun 4.9 00:04:55 25° ENE 00:04:55 25° ENE 00:07:13 10° NNE visible
07 Jun 5.4 01:40:04 18° WNW 01:40:04 18° WNW 01:42:37 10° NNW visible
07 Jun 4.9 23:52:01 23° ENE 23:52:01 23° ENE 23:54:16 10° NE visible
08 Jun 5.3 01:27:09 20° WNW 01:27:09 20° WNW 01:29:55 10° NNW visible
08 Jun 5.0 23:39:05 21° ENE 23:39:05 21° ENE 23:41:18 10° NE visible
